NORTHERN QUEENS  -  Freeze Warning Freeze Warning        SOUTHERN QUEENS  -  Freeze Warning Freeze Warning      

Active alerts

Northern Queens
  Details for Northern Queens Freeze Warning
Southern Queens
  Details for Southern Queens Freeze Warning


WXM80 ListenWXM80 Stop

You find our weather info also at:

UK Metoffice

WeatherCloud

Weather Underground

Northeastern Weather Network

AWEKAS

Citizen Weather Observer Program (CWOP)

HAMweather, WeatherForYou, PWS Weather


Weather Underground History page Text

Daily Summary for January 16, 2018 Units:  English    Metric   Both
« Previous Day
Next Day »
Daily Weekly Monthly Yearly Custom
  High: Low: Average:
Temperature: 33.6 °F 25.0 °F 29.6 °F
Dew Point: 30.8 °F 20.1 °F 26.1 °F
Humidity: 94 % 80 % 87 %
Wind Speed: 6.0 mph 0.0 mph 1.5 mph
Wind Gust: 8.1 mph - -
Wind:- - ENE
Pressure: 30.30 in 30.08 in -
Precipitation: 0.00 in    
Historical Graphs
 
 
Tabular Data for January 16, 2018
Time Temperature Dew Point Pressure Wind Wind Speed Wind Gust Humidity Rainfall Rate (Hourly)
00:02 26.5 °F 22.9 °F 30.25 in ENE 2.7 mph 3.5 mph 86 % 0.00 in
00:10 26.5 °F 23.2 °F 30.24 in ENE 4.2 mph 6.9 mph 87 % 0.00 in
00:17 26.6 °F 23.3 °F 30.25 in East 1.4 mph 2.3 mph 87 % 0.00 in
00:25 26.6 °F 23.3 °F 30.25 in ENE 3.0 mph 3.5 mph 87 % 0.00 in
00:40 26.7 °F 23.6 °F 30.24 in ENE 1.8 mph 3.5 mph 88 % 0.00 in
00:48 26.7 °F 23.6 °F 30.24 in ENE 1.9 mph 3.5 mph 88 % 0.00 in
01:14 26.8 °F 23.7 °F 30.24 in East 1.2 mph 2.3 mph 88 % 0.00 in
01:24 26.7 °F 23.6 °F 30.24 in Calm     88 % 0.00 in
01:40 26.7 °F 23.4 °F 30.25 in Calm     87 % 0.00 in
01:52 26.5 °F 22.9 °F 30.25 in Calm     86 % 0.00 in
01:59 26.5 °F 22.9 °F 30.25 in ENE 0.1 mph 1.2 mph 86 % 0.00 in
02:16 26.2 °F 21.7 °F 30.25 in ENE 2.0 mph 3.5 mph 83 % 0.00 in
02:21 26.1 °F 21.6 °F 30.25 in ENE 1.9 mph 3.5 mph 83 % 0.00 in
02:27 26.1 °F 21.4 °F 30.25 in NE 1.2 mph 3.5 mph 82 % 0.00 in
02:47 26.0 °F 21.3 °F 30.25 in NE 1.0 mph 2.3 mph 82 % 0.00 in
02:56 26.0 °F 21.3 °F 30.26 in NNE 2.9 mph 6.0 mph 82 % 0.00 in
03:06 26.0 °F 21.0 °F 30.27 in NNE 1.7 mph 3.5 mph 81 % 0.00 in
03:12 25.9 °F 20.9 °F 30.27 in North 4.4 mph 5.8 mph 81 % 0.00 in
03:21 25.8 °F 20.8 °F 30.27 in NNE 5.0 mph 7.0 mph 81 % 0.00 in
03:29 25.6 °F 20.3 °F 30.27 in North 2.8 mph 3.5 mph 80 % 0.00 in
03:45 25.4 °F 20.1 °F 30.26 in ENE 2.5 mph 4.6 mph 80 % 0.00 in
03:59 25.1 °F 20.1 °F 30.26 in ENE 0.4 mph 2.3 mph 81 % 0.00 in
04:13 25.0 °F 20.3 °F 30.26 in NE 1.2 mph 3.5 mph 82 % 0.00 in
04:19 25.0 °F 20.3 °F 30.26 in NE 0.9 mph 2.3 mph 82 % 0.00 in
04:25 25.1 °F 20.4 °F 30.26 in NE 1.5 mph 2.3 mph 82 % 0.00 in
04:41 25.2 °F 20.7 °F 30.26 in NE 1.0 mph 2.0 mph 83 % 0.00 in
04:49 25.2 °F 20.8 °F 30.26 in NE 1.9 mph 3.5 mph 83 % 0.00 in
04:55 25.3 °F 20.9 °F 30.27 in NE 1.2 mph 2.3 mph 83 % 0.00 in
05:09 25.4 °F 21.0 °F 30.26 in ENE 1.8 mph 3.5 mph 83 % 0.00 in
05:22 25.5 °F 21.3 °F 30.27 in Calm   2.3 mph 84 % 0.00 in
05:35 25.5 °F 21.3 °F 30.26 in Calm     84 % 0.00 in
05:41 25.6 °F 21.4 °F 30.26 in Calm     84 % 0.00 in
05:50 25.6 °F 21.4 °F 30.26 in Calm     84 % 0.00 in
05:58 25.6 °F 21.4 °F 30.26 in Calm     84 % 0.00 in
06:05 25.6 °F 21.4 °F 30.27 in Calm     84 % 0.00 in
06:20 25.7 °F 21.5 °F 30.27 in Calm     84 % 0.00 in
06:28 25.7 °F 21.5 °F 30.27 in Calm     84 % 0.00 in
06:34 25.8 °F 21.6 °F 30.27 in Calm     84 % 0.00 in
06:42 25.8 °F 21.6 °F 30.27 in ENE 0.4 mph 2.3 mph 84 % 0.00 in
06:47 25.8 °F 21.6 °F 30.27 in Calm     84 % 0.00 in
06:52 25.8 °F 21.6 °F 30.27 in Calm     84 % 0.00 in
06:59 26.0 °F 21.8 °F 30.28 in ENE 0.3 mph 1.2 mph 84 % 0.00 in
07:05 26.0 °F 21.8 °F 30.28 in ENE 0.3 mph 2.3 mph 84 % 0.00 in
07:14 26.0 °F 21.8 °F 30.28 in Calm     84 % 0.00 in
07:26 26.2 °F 22.0 °F 30.29 in Calm     84 % 0.00 in
07:35 26.3 °F 22.1 °F 30.29 in WNW 0.2 mph 2.3 mph 84 % 0.00 in
07:41 26.4 °F 22.2 °F 30.28 in WNW 1.2 mph 2.3 mph 84 % 0.00 in
07:51 26.4 °F 22.2 °F 30.29 in Calm     84 % 0.00 in
07:59 26.5 °F 22.0 °F 30.29 in WNW 0.6 mph 2.0 mph 83 % 0.00 in
08:05 26.5 °F 22.0 °F 30.30 in Calm     83 % 0.00 in
08:18 26.6 °F 21.8 °F 30.29 in WNW 0.7 mph 2.3 mph 82 % 0.00 in
08:27 26.6 °F 22.1 °F 30.29 in NNE 1.8 mph 3.5 mph 83 % 0.00 in
08:40 26.9 °F 22.4 °F 30.29 in ENE 0.7 mph 2.3 mph 83 % 0.00 in
08:54 27.2 °F 22.7 °F 30.29 in East 2.2 mph 3.5 mph 83 % 0.00 in
09:05 27.5 °F 23.3 °F 30.28 in East 2.2 mph 3.5 mph 84 % 0.00 in
09:20 27.9 °F 23.7 °F 30.28 in East 3.9 mph 5.8 mph 84 % 0.00 in
09:30 28.1 °F 24.2 °F 30.27 in East 2.0 mph 5.8 mph 85 % 0.00 in
09:36 28.3 °F 24.4 °F 30.27 in East 2.3 mph 5.0 mph 85 % 0.00 in
09:42 28.5 °F 24.6 °F 30.27 in East 0.7 mph 3.5 mph 85 % 0.00 in
09:51 28.7 °F 24.8 °F 30.27 in East 2.0 mph 3.5 mph 85 % 0.00 in
10:00 29.1 °F 25.2 °F 30.27 in East 1.7 mph 3.5 mph 85 % 0.00 in
10:06 29.4 °F 25.4 °F 30.27 in East 1.0 mph 5.0 mph 85 % 0.00 in
10:11 29.7 °F 25.5 °F 30.26 in East 2.0 mph 3.5 mph 84 % 0.00 in
10:16 29.9 °F 25.7 °F 30.26 in East 1.5 mph 3.5 mph 84 % 0.00 in
10:31 30.7 °F 26.1 °F 30.26 in ENE 2.4 mph 3.5 mph 83 % 0.00 in
10:40 30.9 °F 26.1 °F 30.26 in ENE 4.1 mph 4.6 mph 82 % 0.00 in
10:45 31.0 °F 26.1 °F 30.26 in ENE 2.6 mph 4.0 mph 82 % 0.00 in
10:52 31.1 °F 26.2 °F 30.25 in ENE 3.0 mph 4.0 mph 82 % 0.00 in
10:58 31.2 °F 26.3 °F 30.25 in ENE 3.9 mph 5.0 mph 82 % 0.00 in
11:05 31.4 °F 26.5 °F 30.25 in NE 3.1 mph 6.9 mph 82 % 0.00 in
11:11 31.4 °F 26.5 °F 30.25 in ENE 3.5 mph 4.6 mph 82 % 0.00 in
11:16 31.4 °F 26.5 °F 30.25 in NE 4.0 mph 6.9 mph 82 % 0.00 in
11:25 31.5 °F 26.6 °F 30.25 in ENE 3.1 mph 7.0 mph 82 % 0.00 in
11:34 31.4 °F 26.8 °F 30.25 in NE 3.1 mph 6.9 mph 83 % 0.00 in
11:49 31.5 °F 27.2 °F 30.23 in ENE 4.0 mph 8.1 mph 84 % 0.00 in
12:00 31.6 °F 27.3 °F 30.23 in ENE 6.0 mph 8.1 mph 84 % 0.00 in
12:06 31.6 °F 27.3 °F 30.22 in ENE 4.0 mph 6.9 mph 84 % 0.00 in
12:13 31.6 °F 27.3 °F 30.22 in ENE 4.4 mph 6.9 mph 84 % 0.00 in
12:24 31.8 °F 27.8 °F 30.22 in ENE 3.0 mph 6.9 mph 85 % 0.00 in
12:26 31.9 °F 27.9 °F 30.21 in ENE 2.2 mph 4.6 mph 85 % 0.00 in
12:39 32.1 °F 28.4 °F 30.21 in ENE 2.4 mph 3.5 mph 86 % 0.00 in
12:45 32.2 °F 28.2 °F 30.21 in ENE 3.5 mph 6.9 mph 85 % 0.00 in
12:52 32.3 °F 28.6 °F 30.20 in ENE 3.8 mph 4.6 mph 86 % 0.00 in
13:06 32.5 °F 28.8 °F 30.20 in ENE 5.0 mph 8.0 mph 86 % 0.00 in
13:11 32.8 °F 29.1 °F 30.20 in East 5.0 mph 8.1 mph 86 % 0.00 in
13:21 33.1 °F 29.1 °F 30.20 in ENE 4.6 mph 6.9 mph 85 % 0.00 in
13:26 33.2 °F 29.2 °F 30.20 in NE 4.4 mph 6.9 mph 85 % 0.00 in
13:38 33.2 °F 29.2 °F 30.20 in NE 1.5 mph 4.6 mph 85 % 0.00 in
13:47 33.2 °F 29.2 °F 30.19 in NE 1.6 mph 3.5 mph 85 % 0.00 in
13:55 33.2 °F 29.2 °F 30.19 in ENE 1.8 mph 3.5 mph 85 % 0.00 in
14:01 33.2 °F 29.2 °F 30.19 in NE 1.9 mph 3.5 mph 85 % 0.00 in
14:08 33.4 °F 29.4 °F 30.19 in ENE 2.9 mph 4.6 mph 85 % 0.00 in
14:13 33.3 °F 29.3 °F 30.19 in ENE 2.2 mph 3.5 mph 85 % 0.00 in
14:19 33.4 °F 29.4 °F 30.19 in NNE 2.5 mph 4.6 mph 85 % 0.00 in
14:24 33.5 °F 29.8 °F 30.19 in NE 1.6 mph 3.5 mph 86 % 0.00 in
14:31 33.6 °F 29.6 °F 30.19 in NE 1.9 mph 4.0 mph 85 % 0.00 in
14:40 33.4 °F 29.4 °F 30.19 in ENE 2.0 mph 4.0 mph 85 % 0.00 in
14:45 33.3 °F 29.3 °F 30.19 in NE 3.9 mph 6.9 mph 85 % 0.00 in
14:51 33.2 °F 29.5 °F 30.19 in NE 1.3 mph 3.0 mph 86 % 0.00 in
15:03 33.1 °F 29.4 °F 30.19 in ENE 4.1 mph 4.6 mph 86 % 0.00 in
15:13 33.0 °F 29.3 °F 30.19 in ENE 2.7 mph 4.6 mph 86 % 0.00 in
15:22 32.9 °F 29.5 °F 30.19 in ENE 3.1 mph 6.9 mph 87 % 0.00 in
16:02 32.7 °F 29.5 °F 30.19 in ENE 1.2 mph 3.5 mph 88 % 0.00 in
16:14 32.6 °F 29.4 °F 30.19 in ENE 2.0 mph 3.5 mph 88 % 0.00 in
16:34 32.5 °F 29.6 °F 30.19 in ENE 1.7 mph 3.5 mph 89 % 0.00 in
16:41 32.4 °F 29.5 °F 30.19 in ENE 0.5 mph 2.0 mph 89 % 0.00 in
17:09 32.0 °F 29.1 °F 30.18 in ENE 0.8 mph 2.3 mph 89 % 0.00 in
17:14 31.8 °F 28.9 °F 30.18 in ENE 0.7 mph 2.3 mph 89 % 0.00 in
17:29 31.6 °F 29.0 °F 30.17 in Calm     90 % 0.00 in
18:11 31.9 °F 29.8 °F 30.17 in NE 1.7 mph 2.3 mph 92 % 0.00 in
18:16 32.0 °F 29.9 °F 30.17 in ENE 1.0 mph 3.0 mph 92 % 0.00 in
18:31 32.2 °F 30.4 °F 30.18 in ENE 0.9 mph 2.3 mph 93 % 0.00 in
18:41 32.3 °F 30.5 °F 30.18 in ENE 0.4 mph 3.5 mph 93 % 0.00 in
18:47 32.4 °F 30.6 °F 30.18 in ENE 0.1 mph 1.2 mph 93 % 0.00 in
19:02 32.6 °F 30.8 °F 30.17 in ENE 1.7 mph 2.3 mph 93 % 0.00 in
19:08 32.6 °F 30.8 °F 30.17 in ENE 1.0 mph 2.3 mph 93 % 0.00 in
19:20 32.6 °F 30.8 °F 30.17 in ENE 0.2 mph 2.3 mph 93 % 0.00 in
19:26 32.6 °F 30.8 °F 30.17 in Calm     93 % 0.00 in
19:31 32.6 °F 30.8 °F 30.17 in Calm     93 % 0.00 in
19:40 32.5 °F 30.7 °F 30.17 in Calm     93 % 0.00 in
19:47 32.5 °F 30.7 °F 30.17 in Calm     93 % 0.00 in
19:52 32.4 °F 30.6 °F 30.16 in Calm     93 % 0.00 in
19:58 32.3 °F 30.2 °F 30.16 in Calm     92 % 0.00 in
20:04 32.2 °F 30.4 °F 30.16 in Calm     93 % 0.00 in
20:12 32.0 °F 29.9 °F 30.16 in Calm     92 % 0.00 in
20:21 31.9 °F 29.8 °F 30.16 in Calm     92 % 0.00 in
20:28 31.9 °F 29.8 °F 30.16 in Calm     92 % 0.00 in
20:33 31.8 °F 29.7 °F 30.16 in Calm     92 % 0.00 in
20:50 31.7 °F 29.6 °F 30.16 in Calm     92 % 0.00 in
21:29 31.8 °F 30.0 °F 30.14 in Calm     93 % 0.00 in
21:39 31.8 °F 30.0 °F 30.14 in Calm     93 % 0.00 in
21:44 31.8 °F 30.0 °F 30.14 in Calm     93 % 0.00 in
21:49 31.9 °F 30.4 °F 30.14 in Calm     94 % 0.00 in
21:57 31.8 °F 30.3 °F 30.14 in Calm     94 % 0.00 in
22:09 31.9 °F 30.4 °F 30.14 in Calm     94 % 0.00 in
22:38 31.7 °F 29.9 °F 30.12 in Calm     93 % 0.00 in
22:43 31.6 °F 29.8 °F 30.12 in Calm     93 % 0.00 in
22:53 31.6 °F 29.8 °F 30.11 in Calm     93 % 0.00 in
23:01 31.5 °F 29.7 °F 30.12 in Calm     93 % 0.00 in
23:11 31.5 °F 29.7 °F 30.11 in Calm     93 % 0.00 in
23:17 31.5 °F 30.0 °F 30.11 in Calm     94 % 0.00 in
23:28 31.6 °F 30.1 °F 30.10 in Calm     94 % 0.00 in
23:43 31.6 °F 30.1 °F 30.09 in Calm     94 % 0.00 in
23:58 31.7 °F 30.2 °F 30.08 in Calm     94 % 0.00 in
Crab Meadow Weather
Compliments of Weather Underground - 2 mb

Script developed by  Jim McMurry - jmcmurry@mwt.net Adapted for the template by  Wim van der Kuil - Leuven-Template.eu

Astronomy: Neptune was discovered in 1846 (over 150 years ago). Since that time it has still yet to make a complete orbit around the sun, because one Neptune year lasts 165 Earth years!